GFSWCAN_sfc_temp_192.txt.gz
Temp
55 55 55 55 55 55 55 55 55 55 54 54 54 54 54 54 53 51 50 53 47 37 42 46 48 42 42 40 32 39 36 36 32 27 27 29 28 33 31 34 28 24 20 21 24 21 19 45 41 32 38 44 45 44
54 54 54 54 55 54 54 54 54 54 54 54 54 54 54 54 53 52 48 54 54 42 41 50 50 52 49 48 41 39 37 37 36 30 30 30 26 29 29 25 37 25 29 27 27 29 42 44 43 47 46 44 44 43
54 54 54 54 54 54 54 54 54 53 53 53 53 53 53 53 53 51 48 50 47 41 40 43 45 53 56 54 54 35 39 43 40 43 32 30 24 31 25 28 33 37 41 33 34 38 42 45 47 48 46 44 47 47
53 53 53 53 53 53 53 54 54 53 53 53 53 53 53 53 52 51 47 50 47 40 31 38 54 49 55 54 53 52 47 46 43 35 30 29 26 33 29 32 31 37 39 36 35 41 44 44 46 47 47 47 47 47
53 53 53 53 53 53 53 53 53 53 53 52 52 52 52 52 52 49 49 49 50 40 31 34 45 49 54 53 51 50 47 40 35 31 29 26 33 32 33 33 31 40 38 33 31 44 43 43 46 48 45 44 45 45
52 52 52 52 52 52 52 52 53 53 53 53 52 52 52 52 51 47 34 47 50 47 33 27 44 44 49 49 47 46 44 40 36 32 31 32 38 33 28 26 39 43 45 46 43 45 46 46 48 46 46 46 48 46
52 52 52 52 52 52 52 52 52 53 53 53 52 52 51 51 47 42 38 44 48 46 32 27 31 46 48 46 43 40 41 36 35 33 31 32 34 33 29 25 38 43 43 47 49 45 40 44 42 47 46 48 48 47
52 52 52 52 52 52 52 52 52 52 52 52 52 51 50 49 48 43 46 49 47 38 34 25 27 35 47 35 33 39 34 34 32 32 33 32 34 31 25 35 41 43 44 43 45 47 44 45 45 45 46 47 44 45
52 52 52 52 52 52 52 52 52 52 51 51 50 49 47 44 39 42 48 47 45 38 28 28 25 24 41 35 35 35 35 27 35 30 32 34 30 26 32 37 40 43 43 43 46 46 43 43 42 44 43 43 42 44
51 51 52 52 52 52 51 52 51 51 50 49 47 43 36 41 48 47 41 36 33 33 33 26 33 27 36 33 29 29 32 27 24 31 35 30 28 39 42 44 43 44 47 48 42 39 41 40 42 42 42 45 45 46
51 51 51 52 52 52 51 52 50 50 48 44 38 36 44 48 41 37 29 26 28 24 30 32 34 30 39 29 28 31 25 27 18 28 28 26 26 36 43 44 46 46 47 46 46 46 45 44 44 45 44 45 46 45
51 50 51 51 51 51 51 50 50 46 43 42 42 44 41 34 30 25 23 26 26 25 33 32 33 36 34 35 30 29 24 26 19 32 27 24 33 39 42 44 45 47 45 46 46 45 47 48 46 46 45 45 45 46
50 50 50 50 50 50 50 50 49 48 46 44 37 31 30 27 17 18 13 21 24 32 34 34 31 32 33 33 29 27 23 22 33 25 23 30 37 42 42 43 44 46 46 46 46 46 47 46 47 45 45 45 44 46
50 50 50 49 50 50 49 49 49 46 42 32 27 18 22 20 23 26 27 28 34 35 34 35 31 29 31 27 27 22 28 28 21 22 24 32 36 38 41 43 43 42 43 44 44 43 43 43 43 43 44 45 45 44
50 50 50 49 49 49 49 48 48 45 36 29 28 19 24 31 33 35 35 32 35 38 35 30 29 30 26 23 26 26 23 19 24 24 31 35 36 37 38 40 40 40 41 41 42 42 42 43 43 43 44 44 44 45
50 49 48 50 49 49 49 47 44 41 34 30 29 26 32 31 31 33 34 31 36 34 34 31 25 21 21 24 21 23 22 22 26 32 34 35 34 38 37 39 40 41 41 41 41 42 42 43 42 42 44 43 43 44
49 45 50 49 49 48 48 42 39 32 30 28 26 34 33 33 32 32 36 36 40 31 24 27 22 20 26 21 21 28 26 30 34 34 37 37 36 38 40 41 42 43 42 41 41 41 42 44 44 41 40 41 43 43
45 47 49 48 47 45 42 39 33 30 26 28 27 32 35 37 35 35 37 37 33 31 29 27 30 21 20 19 25 31 34 34 36 36 36 38 39 39 42 40 42 42 42 42 42 42 42 41 40 39 40 41 41 42
47 47 49 48 45 36 31 31 32 26 28 33 34 36 35 36 38 38 37 37 36 36 32 29 23 23 27 31 31 33 33 34 34 35 37 39 39 39 40 41 42 41 41 40 41 40 40 41 40 40 40 40 39 40
48 47 47 47 45 33 29 30 33 29 26 32 34 33 33 34 36 36 35 35 34 32 28 25 26 31 33 34 34 34 34 35 35 34 35 38 40 40 39 39 38 39 39 39 38 41 40 39 40 41 40 40 39 39
46 45 46 44 36 33 32 30 28 30 31 30 33 33 32 34 33 32 32 35 30 29 28 32 32 34 39 36 37 36 37 38 37 36 34 34 38 39 39 39 39 38 37 37 36 37 38 37 39 40 40 39 40 41
42 45 37 39 32 32 30 34 31 33 30 30 31 32 30 29 31 32 34 30 30 32 33 36 36 37 37 36 37 38 39 38 38 37 39 38 35 36 37 37 36 35 36 36 37 36 37 39 39 39 38 38 41 40
41 39 33 32 29 29 27 34 27 30 24 27 30 26 26 28 31 34 28 31 33 38 39 38 37 38 38 40 39 38 38 37 35 36 38 37 37 37 37 37 37 34 33 36 38 37 37 41 40 37 39 39 39 39
39 32 29 27 27 25 27 25 29 28 28 26 24 21 25 27 31 27 26 31 34 35 34 35 35 34 34 35 34 36 38 37 36 37 37 35 34 36 37 37 36 36 36 36 36 37 38 38 41 38 38 39 39 39
27 25 26 21 26 24 23 24 24 25 20 24 22 21 24 29 24 25 27 31 32 32 33 34 34 35 33 35 35 36 38 37 35 34 37 37 36 36 36 37 37 37 38 35 35 36 36 37 38 38 38 38 38 42
23 25 22 24 23 23 24 21 23 24 26 21 24 27 27 25 20 21 28 31 32 33 33 33 32 32 32 33 32 34 35 37 36 32 36 37 36 35 33 33 33 34 37 37 35 35 35 37 36 35 36 37 41 37
21 19 25 31 31 30 28 30 30 27 23 20 23 22 23 15 18 28 32 33 33 34 36 36 35 34 34 33 35 37 37 37 36 35 36 37 37 37 36 33 31 34 37 36 35 35 34 34 35 35 35 36 36 36
25 28 22 26 27 30 23 23 23 23 25 28 26 21 19 21 25 30 31 34 35 35 35 36 37 36 36 36 36 36 35 36 36 36 35 35 36 37 36 37 37 39 37 37 36 35 35 34 34 35 35 38 38 40
26 30 29 17 25 27 26 27 26 30 32 29 25 24 26 32 34 33 33 34 37 35 33 32 33 35 34 34 34 35 34 33 30 28 29 29 31 32 36 36 35 35 35 35 40 38 35 35 34 35 38 38 38 39
25 32 26 23 17 20 28 32 30 33 33 33 32 31 30 30 32 35 34 33 31 32 34 36 35 33 31 31 31 31 33 34 33 31 28 29 31 33 33 33 34 34 35 34 34 35 40 38 39 38 37 36 35 35
31 30 26 26 24 29 32 34 33 32 30 28 29 28 29 31 33 33 32 33 33 32 32 31 31 32 32 31 30 29 29 34 34 34 34 33 33 32 33 34 34 35 35 37 38 37 36 36 35 35 36 35 34 35
29 26 25 21 24 27 29 27 27 27 27 27 26 27 28 28 26 32 31 31 31 29 32 32 30 30 33 33 32 32 36 33 33 33 33 33 32 34 35 37 38 36 37 36 36 35 35 35 34 34 33 33 34 34
26 28 27 25 22 22 27 25 25 23 25 25 26 28 28 28 26 29 29 30 30 29 30 31 31 31 31 30 30 31 35 32 33 37 37 37 38 38 37 37 38 37 37 36 35 35 35 34 33 32 33 33 34 33

GFSWCAN_sfc_temp_198.txt.gz
Temp
54 54 56 56 56 56 56 56 55 55 55 54 54 54 54 54 53 43 40 42 37 24 32 38 40 33 33 28 20 29 26 25 22 21 19 20 20 23 19 24 23 23 20 14 21 19 17 38 38 31 35 40 41 38
55 56 56 56 56 55 55 55 55 54 54 54 54 54 54 53 53 46 37 43 43 33 34 40 43 44 42 40 33 28 27 27 27 18 19 20 20 20 19 12 26 18 26 23 24 24 37 40 40 43 41 40 41 38
55 55 55 55 55 55 55 54 54 54 53 53 53 53 53 53 52 45 37 37 36 29 30 32 35 42 44 43 43 25 26 34 31 31 21 19 15 19 15 17 19 26 33 27 27 33 37 40 43 44 45 42 43 42
55 55 55 55 55 55 54 54 54 53 53 53 53 53 52 52 52 47 37 38 36 31 22 28 42 38 42 42 42 41 39 37 32 23 17 17 17 24 17 23 21 26 28 28 30 34 37 40 42 42 43 42 42 42
54 54 54 54 54 54 54 54 53 53 53 53 52 52 52 52 50 40 38 39 39 33 22 25 34 39 41 41 41 41 38 31 20 21 17 19 24 22 23 22 24 28 28 24 25 35 34 37 42 44 41 40 41 39
54 54 54 53 53 54 53 53 53 53 53 52 52 52 51 51 47 37 27 37 41 37 22 14 31 33 37 40 40 38 36 28 23 23 21 24 27 29 23 18 30 33 36 38 34 41 42 43 45 44 41 41 42 40
53 53 53 53 53 53 53 53 53 53 53 52 52 51 51 50 37 33 30 37 43 36 23 17 18 31 36 36 34 31 29 25 25 25 26 24 24 31 24 21 33 35 38 39 41 42 38 41 40 45 44 43 45 42
53 53 53 53 53 52 52 53 52 52 52 52 51 51 50 48 43 35 38 45 39 32 33 23 13 22 33 24 24 29 22 20 22 22 24 25 24 25 21 27 32 36 37 37 39 42 41 43 40 41 42 42 40 40
53 53 53 53 53 52 52 53 52 52 52 51 50 48 39 35 28 35 47 45 37 29 12 23 16 13 29 24 22 25 23 16 23 22 23 25 21 22 27 31 34 36 35 37 39 39 39 40 38 39 39 39 38 39
52 53 53 53 52 53 53 52 52 52 51 49 40 34 24 31 46 43 33 26 26 31 26 24 24 18 26 20 17 15 14 22 20 22 29 24 22 32 34 36 37 38 40 39 35 35 36 38 36 37 39 40 39 39
52 52 52 52 52 52 52 51 52 50 46 35 27 25 33 43 32 24 12 13 12 14 18 25 24 20 28 21 18 19 12 9 6 19 23 23 22 30 36 35 38 39 38 38 39 40 41 42 40 38 39 40 41 40
51 51 51 51 51 52 52 51 51 40 35 36 35 35 30 21 14 11 1 9 11 15 20 22 25 25 24 23 19 19 15 13 11 25 23 19 29 35 35 35 37 38 38 39 41 42 43 42 41 41 39 40 40 40
51 51 51 50 50 51 51 51 49 47 43 34 26 18 17 11 7 4 0 7 11 22 25 27 22 21 24 21 14 20 14 15 27 18 20 26 32 33 33 35 37 39 40 41 40 41 41 41 42 40 39 40 39 39
51 51 51 51 51 51 51 49 49 45 35 23 13 10 10 2 9 9 13 16 25 24 24 25 23 21 20 17 11 12 18 21 20 20 21 24 28 31 32 34 34 37 38 39 41 42 41 41 40 41 40 39 39 38
50 50 50 49 50 50 50 49 48 39 30 18 15 9 10 20 16 19 18 16 25 26 26 19 18 18 11 12 14 15 14 19 22 22 23 27 29 29 30 33 33 35 37 38 40 40 39 38 39 38 38 38 38 38
50 49 43 49 50 49 48 46 40 36 29 19 19 18 22 21 16 17 22 16 23 23 23 21 10 13 10 12 13 20 19 19 23 26 29 28 31 30 32 34 35 36 37 38 39 39 38 37 37 37 37 37 38 38
48 37 48 49 49 48 46 35 31 25 20 16 16 25 23 22 20 18 24 26 28 22 17 13 10 12 16 15 16 25 24 27 29 28 29 30 33 32 34 35 37 37 38 38 38 38 37 38 38 38 36 36 37 37
37 40 50 49 43 42 35 32 23 22 14 25 23 23 23 24 23 23 25 30 25 22 23 20 22 12 12 10 21 27 27 29 28 28 30 33 35 35 39 37 38 38 38 38 39 39 38 38 36 35 36 36 36 36
39 40 49 47 39 31 29 31 25 17 21 26 24 24 24 25 26 29 28 28 26 27 27 25 19 20 23 27 27 27 28 28 27 29 31 35 35 36 36 37 38 38 37 37 38 37 37 37 36 36 36 36 35 35
48 48 48 46 40 21 15 24 31 26 17 24 24 23 24 25 27 27 26 22 24 27 25 21 21 26 27 30 29 29 29 29 27 28 30 34 36 36 35 34 34 34 35 36 36 40 37 36 36 36 36 36 34 34
43 42 45 37 32 25 21 17 25 28 28 23 24 25 24 25 22 20 22 25 20 24 23 26 26 30 34 33 31 31 30 30 31 30 32 33 35 33 33 33 33 33 33 32 32 33 35 32 33 34 34 34 34 34
35 43 34 37 30 31 28 27 23 29 25 25 23 25 22 20 23 22 21 21 23 26 25 27 31 32 31 30 32 33 34 33 33 34 39 36 33 32 31 31 31 31 30 30 31 32 32 32 33 33 33 33 36 35
39 35 32 31 25 26 19 30 26 27 21 14 22 19 16 20 25 27 24 26 26 29 31 32 33 32 34 34 35 36 34 32 32 32 34 34 32 32 31 31 31 30 30 30 31 31 32 38 35 33 33 34 34 34
38 26 26 25 15 15 19 20 24 21 23 16 15 12 17 19 25 22 22 24 27 29 29 31 30 29 30 31 30 33 34 33 32 32 33 32 31 31 31 32 31 31 32 31 31 32 32 33 38 34 34 34 34 34
20 24 24 11 17 16 14 12 16 20 11 18 18 14 17 23 17 18 21 25 26 28 28 28 27 28 28 27 29 32 34 33 32 31 32 32 31 30 31 31 31 32 33 32 32 32 32 33 33 34 34 34 34 37
11 17 21 16 16 19 19 14 17 20 21 14 20 22 22 18 15 16 23 26 26 27 28 28 27 26 26 28 29 30 32 33 32 30 32 32 32 31 30 30 30 32 33 33 32 32 32 33 33 32 33 33 39 34
10 16 20 26 25 24 21 24 24 19 17 15 16 14 11 8 12 23 27 28 28 30 31 30 29 28 28 29 31 32 32 32 32 32 33 33 33 33 32 31 30 32 33 33 33 33 32 32 32 32 32 32 32 33
20 22 19 22 22 25 18 14 17 19 21 22 20 14 14 16 20 27 28 31 30 31 32 32 33 32 31 32 32 32 32 32 33 32 31 31 31 32 32 32 33 39 34 34 33 33 32 32 32 32 32 32 32 33
22 24 22 12 20 22 21 23 22 25 28 24 21 18 22 27 28 29 30 28 32 31 30 30 30 30 30 30 30 31 31 30 29 27 27 27 26 29 31 31 31 31 31 32 39 36 33 32 32 32 32 32 32 33
23 26 18 17 15 16 23 26 25 27 27 28 28 27 26 26 28 28 29 28 28 29 31 31 31 29 28 27 27 28 29 29 29 29 27 26 27 29 29 30 30 30 30 30 31 32 38 37 39 38 36 36 36 36
24 22 18 19 16 22 26 27 27 28 26 25 27 26 27 27 28 28 28 28 29 28 27 27 28 28 28 27 27 27 27 30 30 31 31 30 29 29 30 30 30 30 30 31 31 32 35 35 35 35 35 35 35 35
21 20 19 13 15 20 22 22 22 22 21 21 21 21 24 24 22 27 28 26 25 25 30 30 27 28 29 29 29 29 36 31 31 30 31 30 30 30 31 31 32 33 32 31 33 35 35 34 34 34 33 33 34 34
22 23 22 20 15 15 20 20 20 18 18 18 20 23 24 24 22 28 26 26 26 26 26 27 28 28 29 29 29 29 33 29 31 36 37 37 36 34 33 36 37 37 36 35 35 34 34 33 33 33 33 33 33 32

GFSWCAN_sfc_temp_201.txt.gz
Temp
56 55 55 54 54 55 56 56 56 55 55 54 54 54 54 53 52 43 38 40 35 22 29 36 38 31 31 26 19 28 24 24 20 14 16 19 20 20 18 20 18 14 8 10 16 17 17 38 36 27 34 39 40 40
54 53 53 53 54 55 56 56 55 55 54 54 54 54 53 53 52 46 36 41 41 32 32 38 40 42 41 38 31 26 25 26 26 18 18 20 19 20 19 12 22 14 20 22 23 21 37 39 38 41 42 39 40 38
53 53 54 55 55 55 54 54 55 54 54 53 53 53 53 53 51 45 36 35 34 29 29 32 34 39 42 41 42 24 25 32 29 30 20 19 14 18 13 15 17 23 28 22 21 31 35 39 41 43 43 41 42 40
53 54 54 53 53 54 55 54 54 54 54 53 53 53 52 52 50 45 36 36 35 29 19 29 40 35 40 39 40 39 37 34 29 22 15 15 15 23 17 23 21 27 24 23 24 30 34 37 39 41 43 42 42 41
53 54 55 55 55 54 54 54 54 54 53 53 52 52 52 50 48 40 36 36 37 31 18 24 32 36 37 38 37 38 35 29 20 20 14 17 23 20 20 20 22 28 27 21 22 33 33 35 40 42 42 41 41 39
55 55 55 54 54 54 54 53 53 53 53 52 52 52 51 49 46 36 27 37 39 35 21 13 29 30 35 37 37 36 34 26 21 22 20 23 26 27 21 17 29 34 36 35 31 37 38 39 41 43 43 42 42 41
54 54 54 54 54 53 53 53 53 53 52 52 52 51 50 49 36 33 30 36 41 34 19 16 18 30 32 32 31 29 27 21 24 21 26 22 23 31 25 20 32 36 36 35 38 37 33 36 38 44 42 43 44 40
54 53 53 53 53 53 53 53 53 52 52 52 51 50 49 48 43 36 37 44 38 28 26 9 12 21 31 24 23 27 20 18 22 21 22 24 23 22 20 26 30 34 35 34 35 38 38 40 41 41 40 40 38 38
53 53 53 53 53 53 53 53 52 52 52 51 49 48 39 34 29 35 47 42 35 27 11 8 14 13 28 22 21 23 22 16 21 24 23 24 20 17 26 30 33 35 34 34 37 36 36 36 37 38 37 36 36 37
53 53 53 53 53 53 53 53 52 52 50 48 40 34 24 30 46 42 30 24 25 29 29 14 20 19 24 19 15 14 13 18 19 19 27 25 21 31 33 34 35 36 36 37 32 32 34 34 36 37 38 39 38 37
53 53 53 52 52 52 52 52 52 49 46 36 28 25 32 41 30 23 11 13 12 13 13 22 22 19 26 19 17 18 12 10 9 18 23 20 22 31 35 35 36 36 36 36 36 37 36 37 38 38 38 39 38 37
52 52 53 52 52 52 51 51 50 39 35 36 34 33 29 19 13 11 -1 6 10 14 19 22 24 24 23 22 17 17 15 14 10 24 21 21 27 32 33 33 34 35 35 38 39 38 39 41 40 40 39 38 38 37
51 51 51 52 51 52 52 51 48 46 42 33 25 16 16 10 8 4 1 6 10 21 23 24 22 20 22 18 12 19 14 14 26 20 20 24 30 33 32 33 34 36 36 38 39 39 40 40 42 40 37 37 37 37
50 50 50 50 50 51 50 50 48 43 33 20 14 12 9 2 6 8 12 15 24 23 23 24 22 20 20 16 9 11 16 20 17 19 21 26 28 30 32 33 32 33 35 35 37 39 40 39 39 38 37 37 37 36
51 51 51 50 51 51 50 49 47 38 28 18 15 9 11 19 15 17 15 14 24 25 25 17 16 17 9 11 12 15 14 13 21 22 24 27 28 32 30 32 32 33 35 36 38 38 38 37 37 36 36 36 36 36
50 49 42 49 50 50 49 44 38 35 24 17 17 14 21 19 14 15 20 16 22 22 22 20 11 14 13 12 12 16 18 19 22 25 28 28 31 31 33 33 33 35 36 36 38 39 38 36 36 35 36 36 35 36
47 37 49 49 49 47 46 35 32 21 18 12 13 24 22 21 20 16 23 24 25 20 13 9 8 12 14 11 10 24 23 27 27 27 27 30 31 32 36 37 37 37 37 37 37 37 36 37 37 36 34 34 35 35
36 41 49 48 44 42 36 30 24 21 12 12 20 22 22 23 22 22 23 25 24 21 21 19 22 10 9 7 19 24 26 28 29 26 27 30 31 35 37 36 37 37 38 37 37 37 36 36 34 33 34 34 34 34
38 42 48 46 39 30 23 29 22 12 16 24 23 23 23 23 25 27 26 25 24 24 26 20 19 18 22 25 25 27 27 27 27 28 28 30 33 33 35 36 36 36 36 36 37 37 36 35 34 34 34 34 33 33
48 48 47 45 39 21 15 25 32 27 17 23 23 23 23 24 25 25 24 22 24 20 19 20 19 27 24 27 28 28 29 28 26 27 29 32 34 32 33 33 32 32 33 34 35 39 36 36 35 34 34 34 32 32
42 43 44 36 30 22 18 23 21 25 28 22 23 24 23 24 21 19 21 24 16 20 22 25 24 28 30 31 30 30 29 28 28 29 30 29 33 30 32 33 32 32 31 31 31 32 34 31 31 31 32 31 32 32
36 43 33 36 30 29 22 20 22 29 24 24 22 24 21 20 23 21 20 21 22 24 24 26 31 32 28 28 31 30 33 31 30 31 36 35 30 31 31 31 31 31 30 30 29 30 30 30 31 31 31 31 34 33
40 35 32 32 26 26 20 29 23 25 22 18 22 17 15 19 24 26 23 25 25 28 29 28 30 31 31 32 32 32 31 30 29 29 30 31 31 31 29 29 30 30 30 30 29 29 30 36 34 32 32 32 33 33
37 21 21 25 19 15 20 22 24 20 24 20 18 12 16 18 24 20 22 24 26 27 27 28 28 27 28 29 27 30 33 32 30 29 30 31 30 30 30 30 30 30 30 30 29 30 30 31 36 32 32 33 33 33
20 24 19 17 19 15 12 10 13 20 11 17 15 12 16 22 16 17 20 24 25 25 26 27 26 27 28 28 28 30 32 31 30 30 31 32 31 29 30 30 30 31 32 31 31 32 31 31 32 32 32 33 33 34
10 17 21 18 18 18 17 11 15 19 20 12 18 21 21 17 14 16 22 25 25 27 29 28 27 27 27 28 28 29 32 31 30 30 31 32 31 30 30 30 29 31 32 32 32 32 32 32 32 33 32 32 37 33
8 13 21 25 23 23 20 23 23 19 17 14 15 13 11 9 11 22 25 27 27 29 30 30 29 28 27 27 28 31 32 31 31 32 32 32 32 32 31 30 30 32 33 33 33 32 32 32 32 32 32 32 32 32
19 21 19 21 21 24 17 15 17 18 20 21 19 13 14 15 19 26 26 29 30 31 31 31 31 30 30 30 31 31 31 31 32 32 31 31 31 31 32 32 32 38 33 33 33 32 32 32 31 31 32 31 31 32
20 23 22 16 19 21 21 23 22 24 26 23 20 18 21 26 28 28 29 26 30 30 29 29 30 30 29 29 30 30 30 30 30 28 28 28 26 29 29 30 30 31 31 32 38 36 33 32 31 31 32 32 32 32
23 26 19 18 14 16 23 26 25 26 25 26 26 26 25 25 27 28 27 26 27 28 30 30 31 29 29 28 29 29 29 29 30 29 28 27 27 28 28 29 29 29 29 30 31 32 38 35 36 35 35 33 34 36
25 25 20 19 16 22 25 25 25 26 24 21 22 24 28 27 28 28 28 28 29 28 27 27 28 29 29 28 27 27 27 29 29 30 30 29 28 28 28 29 29 29 30 30 30 30 30 31 32 34 34 34 34 35
21 20 19 14 16 20 21 21 20 21 20 21 21 20 23 24 21 27 28 26 25 25 30 30 27 28 29 30 29 29 37 31 30 30 31 30 29 29 30 30 30 30 30 31 30 31 34 34 34 33 33 33 33 33
19 21 20 19 15 15 20 19 18 16 17 16 19 22 23 24 22 28 26 25 26 25 25 26 27 28 28 29 29 29 33 29 32 36 37 37 36 34 31 31 34 36 36 35 34 34 34 33 33 33 32 33 33 33

GFSWCAN_sfc_temp_204.txt.gz
Temp
57 57 57 56 56 56 56 56 56 55 55 55 54 54 54 53 52 42 37 38 34 23 29 35 37 30 29 26 20 26 22 23 18 11 15 18 19 19 17 18 17 13 3 3 9 11 12 36 35 26 33 36 38 39
56 56 55 55 54 54 55 55 54 54 54 54 54 54 53 53 52 46 36 40 40 31 32 36 38 39 38 37 30 25 24 25 26 18 17 19 18 19 18 10 19 12 17 10 21 19 33 38 36 39 40 38 38 39
55 54 54 53 53 54 54 54 54 53 53 53 53 53 53 52 51 45 36 36 35 28 30 33 33 38 40 40 40 24 24 30 28 28 19 14 11 17 11 15 15 21 25 22 23 29 30 35 39 40 40 39 41 40
54 53 53 52 53 54 54 54 53 53 54 53 53 53 52 51 50 45 36 35 34 27 19 28 38 34 39 39 38 38 35 32 27 20 12 12 13 22 15 22 21 27 23 22 21 28 30 33 36 39 40 41 41 41
53 53 53 53 53 52 53 54 54 54 53 53 52 52 51 50 48 41 36 36 37 30 18 25 32 35 36 36 36 36 34 28 19 18 13 17 22 19 18 19 21 25 26 23 22 32 30 32 38 40 38 39 41 39
52 52 53 53 53 54 54 54 54 53 53 52 52 51 50 49 45 38 29 36 38 35 22 16 29 30 33 34 34 32 31 23 19 21 19 23 25 22 13 15 24 31 34 37 31 34 36 37 38 40 38 40 41 38
52 52 52 53 53 53 53 53 53 53 52 52 51 51 49 47 39 33 30 36 40 34 21 13 19 29 29 31 29 27 26 20 21 19 26 23 22 29 21 19 31 33 36 35 36 34 30 34 33 39 40 41 42 39
53 53 53 53 53 53 53 53 53 52 52 51 50 50 49 48 44 36 38 43 37 27 21 8 12 20 29 22 22 25 18 18 22 27 23 26 22 19 20 26 31 35 36 37 38 34 35 37 38 38 39 38 36 37
53 54 53 53 53 53 53 53 52 52 51 51 49 47 39 34 30 34 45 41 34 27 11 6 11 13 27 21 20 22 21 17 21 24 24 24 20 19 26 30 31 34 33 34 36 36 35 33 35 36 38 37 36 36
53 53 53 53 53 53 53 52 52 51 50 49 40 34 27 31 44 43 29 24 21 20 27 12 17 17 23 19 14 14 12 9 9 18 24 21 21 30 33 33 34 34 34 35 30 32 34 36 35 35 36 37 37 36
53 53 53 52 52 53 53 52 51 49 46 36 29 26 32 40 30 23 11 12 9 10 10 20 22 18 25 18 16 17 10 16 7 16 22 19 20 27 32 32 34 34 33 34 36 36 37 37 35 37 38 37 37 36
53 53 52 52 52 52 52 52 49 39 34 36 33 32 28 18 12 12 -2 4 11 15 19 21 24 22 21 21 16 15 14 13 9 22 21 20 26 31 32 32 33 34 33 34 38 38 39 40 39 38 37 36 36 36
53 53 52 52 52 52 52 50 48 46 41 34 25 17 18 10 9 5 2 5 10 21 23 24 21 21 20 17 10 18 14 13 23 21 21 25 29 31 31 32 33 34 34 35 37 38 39 38 40 38 36 35 35 35
52 52 52 52 51 51 50 49 48 43 33 22 15 12 9 3 6 8 11 15 23 23 22 23 22 19 19 15 8 10 13 16 17 17 18 26 26 29 30 32 31 32 33 34 35 38 37 37 36 37 35 35 36 34
50 51 51 50 50 50 49 48 46 37 28 19 18 12 9 19 14 17 15 15 23 24 24 17 16 16 10 9 11 12 10 12 21 20 25 27 28 28 30 31 31 32 35 36 37 38 36 36 36 34 34 35 35 35
50 49 43 50 49 49 48 44 37 34 23 18 16 17 21 19 14 16 20 16 22 22 22 19 10 12 12 10 11 14 15 18 19 24 27 26 28 27 32 36 35 34 34 37 37 37 36 36 36 35 34 33 33 34
47 37 49 50 49 47 46 35 32 21 17 14 15 24 23 21 21 17 23 23 24 20 12 7 7 12 12 7 8 18 20 26 28 27 26 26 26 29 33 35 37 33 35 36 37 37 35 37 37 35 33 33 34 33
37 45 50 48 44 42 35 30 26 20 17 14 20 23 22 23 22 22 22 23 23 19 17 14 19 9 11 5 15 21 25 27 25 26 26 28 29 33 35 33 36 36 36 37 36 36 35 35 34 32 33 33 33 33
40 45 48 47 39 30 24 26 23 14 18 24 24 23 23 23 24 26 26 24 22 23 23 16 18 16 20 23 24 26 25 27 28 28 28 28 29 31 32 33 34 35 35 36 36 35 34 33 32 33 32 32 31 31
48 48 47 45 39 23 18 26 25 19 16 23 23 22 23 23 24 24 22 21 22 18 23 17 19 24 23 26 27 28 28 28 27 27 28 30 31 30 31 31 31 32 33 35 35 39 35 34 33 33 33 33 30 30
44 44 43 35 29 21 17 25 19 19 23 20 23 23 22 23 20 18 20 23 14 16 20 24 25 27 28 29 29 29 28 27 27 28 29 29 31 30 30 31 31 31 31 31 31 32 33 31 31 32 31 30 30 31
39 43 34 34 27 28 15 18 21 24 22 25 21 23 20 18 22 21 20 20 21 23 24 25 30 31 30 26 30 28 32 30 28 29 35 33 28 29 30 30 31 31 30 30 30 29 29 30 31 30 29 30 33 33
40 34 31 30 24 21 18 30 21 25 22 20 21 16 14 18 23 25 22 24 25 27 27 27 28 29 29 31 29 30 30 28 27 27 29 29 29 29 28 29 30 30 30 30 29 28 29 35 33 31 31 32 32 32
36 21 20 21 12 12 20 16 21 18 24 16 20 15 15 17 23 19 22 23 26 26 26 26 27 26 25 26 25 27 30 29 29 28 28 28 28 29 29 30 30 30 30 30 29 29 30 30 34 31 31 32 32 32
21 17 18 19 21 17 9 9 14 20 15 15 13 10 15 20 15 16 19 23 24 25 26 26 25 24 24 25 27 28 31 31 30 29 29 29 29 29 29 30 30 30 31 30 30 31 31 31 30 31 32 32 32 32
9 16 19 17 18 17 17 11 14 17 19 10 17 19 19 16 13 17 20 24 25 26 27 27 26 25 24 25 27 28 30 30 29 29 30 30 30 30 30 30 29 31 32 32 31 32 31 31 31 31 31 31 36 32
6 11 21 24 23 22 19 21 22 18 16 13 14 12 11 11 11 20 25 26 26 28 29 29 28 26 26 26 28 29 30 31 31 31 32 31 32 32 31 30 30 32 32 33 32 32 32 31 31 31 31 31 31 31
18 20 19 21 20 23 16 13 16 17 19 20 18 12 13 15 18 26 26 29 28 29 30 30 29 28 27 28 28 29 30 31 31 31 31 30 30 31 31 31 31 38 32 32 33 32 32 31 31 31 31 31 31 31
19 22 22 20 18 20 20 21 20 23 25 22 20 17 21 26 28 28 29 26 29 28 28 28 28 28 28 28 29 29 30 30 29 28 28 28 26 29 29 29 30 30 30 32 39 35 33 31 31 31 32 32 32 31
20 24 18 16 13 16 22 25 25 26 25 25 25 25 25 24 27 28 27 26 26 27 29 30 30 28 28 27 28 29 28 29 30 30 29 28 29 29 28 29 29 29 29 30 30 31 38 34 35 32 33 31 32 34
24 22 18 18 15 20 24 26 26 26 23 20 21 23 28 28 28 28 27 27 28 28 27 27 28 28 27 27 27 27 28 29 29 30 31 29 29 28 28 28 29 28 29 30 30 30 30 30 30 30 33 35 35 35
20 20 18 12 14 18 21 21 20 19 19 19 19 19 21 22 21 28 28 26 25 24 30 30 26 29 29 30 29 29 37 31 31 30 31 30 29 29 29 29 29 29 29 30 30 29 31 33 33 34 33 33 33 33
18 20 19 17 14 16 19 18 17 15 16 15 18 21 22 23 22 28 26 25 26 25 25 25 26 26 27 28 28 29 34 30 32 36 37 37 36 33 29 29 30 31 31 31 33 34 33 33 33 33 33 32 33 33